Date,TemperatureHighF,TemperatureAvgF,TemperatureLowF,DewpointHighF,DewpointAvgF,DewpointLowF,HumidityHigh,HumidityAvg,HumidityLow,PressureMaxIn,PressureMinIn,WindSpeedMaxMPH,WindSpeedAvgMPH,GustSpeedMaxMPH,PrecipitationSumIn
2013-1-1,31.6,20.3,9.6,25.2,9.5,-1.8,77,62,56,29.86,29.53,19,1,19,0.00
2013-1-2,16.8,11.5,0.6,7.3,0.4,-11.4,67,61,54,30.17,29.76,12,1,12,0.00
2013-1-3,2.4,0.8,-0.7,-9.0,-10.9,-12.4,58,57,56,30.17,30.11,8,0,8,0.00
2013-1-15,32.9,27.8,0.0,22.5,18.6,-8.6,69,67,65,30.20,30.13,0,0,0,0.00
2013-1-16,32.7,31.0,29.1,26.2,23.5,21.5,78,74,69,30.13,29.64,7,0,7,0.00
2013-1-17,33.6,24.5,13.2,27.4,13.3,-1.9,79,63,49,30.12,29.63,15,1,15,0.00
2013-1-18,20.3,14.8,6.4,6.5,-0.2,-6.7,55,51,47,30.25,30.08,8,0,8,0.00
2013-1-19,33.4,27.5,20.3,25.6,19.1,6.9,74,71,56,30.08,29.56,8,1,11,0.00
2013-1-20,37.7,31.7,19.5,30.0,21.4,6.2,75,66,56,29.89,29.22,31,4,31,0.00
2013-1-21,19.5,14.7,11.3,6.2,2.5,-0.7,63,58,55,29.97,29.75,8,0,8,0.00
2013-1-22,13.8,10.4,6.0,2.8,-1.6,-7.9,63,58,49,30.01,29.73,8,0,8,0.00
2013-1-23,6.0,2.1,-2.3,-7.8,-12.4,-16.1,53,50,47,30.12,30.01,9,0,9,0.00
2013-1-24,12.7,4.2,-4.1,-3.6,-10.0,-16.3,57,51,46,30.28,30.06,11,1,11,0.00
2013-1-25,14.1,9.5,2.8,1.2,-4.0,-10.8,59,54,49,30.30,30.02,8,0,8,0.00
2013-1-26,16.8,12.9,7.3,2.7,0.3,-3.7,61,57,50,30.21,30.01,11,0,11,0.00
2013-1-27,18.3,14.2,8.6,3.8,1.1,-3.6,59,56,51,30.42,30.21,8,0,9,0.00
2013-1-28,24.6,18.7,11.1,17.7,9.2,-0.2,75,66,59,30.37,29.87,9,1,10,0.00
2013-1-29,33.2,27.0,23.3,28.4,20.5,16.5,83,77,75,30.07,29.79,8,1,10,0.00
2013-1-30,47.6,40.6,33.2,44.4,36.9,28.5,89,87,83,29.79,29.10,17,3,17,0.00
2013-1-31,48.3,37.9,25.8,45.5,29.3,12.2,90,72,55,29.43,28.73,33,5,33,0.00
2013-2-1,26.0,20.7,17.4,13.4,7.0,3.5,60,55,51,30.02,29.42,8,1,8,0.00
2013-2-2,23.3,18.4,14.1,14.1,7.3,0.8,69,62,54,30.08,29.90,3,0,5,0.00
2013-2-3,23.1,18.4,12.7,13.6,9.8,3.4,71,69,66,29.94,29.65,5,0,5,0.00
2013-2-4,23.3,19.1,13.6,12.7,7.5,-2.0,71,61,49,29.84,29.63,11,1,11,0.00
2013-2-5,19.2,14.2,7.3,5.1,0.3,-6.1,56,53,49,29.94,29.78,9,0,9,0.00
2013-2-6,26.7,20.8,15.4,17.2,6.7,-2.1,67,54,44,30.30,29.75,11,1,11,0.00
2013-2-7,15.6,11.1,8.4,-1.6,-5.2,-7.8,49,47,46,30.52,30.29,8,0,8,0.00
2013-2-8,22.2,15.9,10.9,14.9,5.5,-4.3,73,63,49,30.34,29.91,10,0,10,0.00
2013-2-9,20.1,15.4,7.7,9.1,3.3,-4.8,69,59,49,30.27,29.91,61,3,61,0.00
2013-2-10,23.3,14.6,5.0,11.0,2.9,-6.9,62,59,56,30.39,30.11,8,0,8,0.00
2013-2-11,35.7,28.4,13.8,30.4,19.8,2.8,81,70,61,30.11,29.48,14,2,14,0.00
2013-2-12,36.6,34.9,33.0,28.9,27.1,24.1,77,73,69,29.72,29.46,12,2,12,0.00
2013-2-13,33.0,32.8,32.7,24.3,24.1,24.0,70,70,70,29.72,29.71,11,2,11,0.00
2013-2-18,19.4,17.9,16.8,3.9,3.2,2.6,54,52,50,30.04,30.00,0,0,0,0.00
2013-2-19,36.3,27.7,16.8,26.4,16.2,3.3,76,62,54,30.02,29.51,18,2,18,0.00
2013-2-20,32.9,31.4,30.7,25.7,23.4,21.7,75,72,69,29.52,29.50,10,2,10,0.00
2013-2-25,35.4,34.4,33.6,30.7,29.8,29.2,84,83,83,30.14,29.98,0,0,0,0.00
2013-2-26,38.6,35.5,32.5,33.0,30.1,28.2,85,81,76,30.23,29.99,15,0,15,0.00
2013-2-27,37.2,35.0,33.9,30.4,29.2,27.6,84,80,75,29.99,29.54,8,0,8,0.00
2013-2-28,39.9,36.1,33.8,34.4,31.4,29.2,85,83,80,29.55,29.46,7,0,7,0.00
2013-3-1,36.3,34.6,33.4,30.2,28.4,27.0,82,78,73,29.69,29.53,9,0,9,0.00
2013-3-2,35.2,32.0,27.6,27.7,24.1,19.2,79,72,68,29.71,29.65,8,1,8,0.00
2013-3-3,32.5,29.4,26.7,24.1,21.0,18.6,73,71,68,29.67,29.59,9,0,9,0.00
2013-3-4,31.2,28.8,26.4,21.3,19.4,16.8,71,68,64,29.80,29.60,8,1,8,0.00
2013-3-5,34.3,31.2,28.5,25.6,22.9,20.2,75,71,69,30.03,29.79,9,0,9,0.00
2013-3-6,41.1,35.9,31.1,31.9,27.3,24.2,79,71,63,30.11,30.00,10,1,10,0.00
2013-3-7,35.4,33.9,32.1,26.0,23.3,21.9,68,65,62,30.14,30.08,11,1,11,0.00
2013-3-8,37.4,33.7,30.9,26.3,23.7,21.2,70,66,62,30.25,30.08,11,1,11,0.00
2013-3-9,40.8,33.6,25.5,28.4,23.1,16.7,71,65,59,30.28,30.22,8,0,8,0.00
2013-3-10,46.0,39.1,29.1,31.6,26.7,20.8,73,62,49,30.23,29.95,14,2,14,0.00
2013-3-11,44.9,43.0,40.2,33.4,31.0,28.0,66,63,55,30.02,29.76,11,2,11,0.00
2013-3-12,48.0,43.9,39.3,43.7,38.0,33.0,85,80,64,29.80,29.63,19,2,19,0.00
2013-3-13,41.1,38.3,33.6,33.0,30.4,25.1,79,73,65,29.72,29.64,8,0,8,0.00
2013-3-14,34.3,33.8,33.2,25.1,24.0,22.6,69,67,65,29.64,29.61,11,3,11,0.00
2013-3-15,32.1,29.4,21.3,23.5,17.7,8.4,70,62,54,29.76,29.47,13,2,13,0.00
2013-3-16,29.0,25.7,21.3,19.0,14.0,9.8,66,61,57,29.83,29.64,13,1,13,0.00
2013-3-17,26.9,23.0,18.3,12.8,8.4,4.5,62,54,45,30.26,29.82,13,2,13,0.00
2013-3-18,30.3,25.0,16.3,14.5,8.4,1.3,53,49,44,30.35,29.98,9,0,9,0.00
2013-3-19,33.4,30.7,0.0,27.0,23.5,-5.5,80,74,53,29.98,29.61,61,2,61,0.00
2013-3-20,34.8,31.3,25.3,26.0,22.2,17.5,79,69,63,29.61,29.53,61,2,61,0.00
2013-3-21,36.3,31.5,25.7,21.6,19.3,15.8,67,61,55,29.61,29.53,12,1,12,0.00
2013-3-22,29.6,27.7,25.8,18.0,16.4,14.9,64,62,61,29.56,29.55,6,0,8,0.00
2013-3-24,35.4,33.1,30.7,24.4,22.7,21.0,67,66,63,29.75,29.72,0,0,0,0.00
2013-3-25,42.4,35.6,27.1,29.1,24.5,18.3,69,64,58,29.73,29.51,8,0,10,0.00
2013-3-26,42.8,38.8,34.3,28.7,25.6,23.9,67,59,51,29.71,29.56,10,1,10,0.00
2013-3-27,46.0,41.6,35.7,31.5,27.8,23.9,64,58,53,29.85,29.66,9,1,9,0.00
2013-3-28,46.2,42.0,37.9,36.8,32.6,28.9,77,70,63,29.95,29.84,9,0,9,0.00
2013-3-29,47.6,43.5,39.9,34.8,32.1,28.6,71,64,55,29.98,29.92,9,1,9,0.00
2013-3-30,47.8,41.9,35.2,31.4,25.9,19.7,67,54,39,30.02,29.96,9,1,9,0.00
2013-3-31,51.0,41.9,30.7,34.0,26.4,18.8,65,54,45,29.99,29.58,15,2,15,0.00
2013-4-1,47.8,41.5,31.6,38.0,29.1,16.5,76,62,43,29.69,29.40,26,4,26,0.00
2013-4-2,34.3,31.8,27.5,18.1,15.9,12.7,61,52,45,29.79,29.68,14,2,14,0.00
2013-4-3,40.8,34.7,28.5,16.4,14.2,10.6,49,43,36,30.08,29.78,17,2,17,0.00
2013-4-4,50.9,41.3,30.5,23.3,18.4,12.6,50,40,33,30.14,29.76,14,2,14,0.00
2013-4-5,46.9,40.5,33.8,28.8,22.4,14.5,54,48,42,29.92,29.69,18,2,18,0.00
2013-4-6,39.5,34.4,28.0,16.0,12.7,8.8,47,41,34,30.19,29.92,15,2,15,0.00
2013-4-7,53.2,44.2,34.3,34.6,25.9,16.0,56,49,42,30.14,29.62,19,4,19,0.00
2013-4-8,50.1,45.4,42.9,33.2,30.9,29.1,62,57,52,30.06,29.79,10,1,10,0.00
2013-4-9,51.9,46.0,42.0,40.9,37.3,31.5,80,72,62,29.94,29.65,15,1,15,0.00
2013-4-10,47.4,45.6,43.3,39.8,38.5,36.5,82,76,70,29.94,29.83,8,0,8,0.00
2013-4-11,43.3,41.2,38.8,36.5,32.5,27.2,77,71,63,29.90,29.85,11,1,11,0.00
2013-4-14,38.8,37.4,36.1,28.7,28.0,27.1,70,68,67,30.12,30.09,0,0,0,0.00
2013-4-15,51.9,42.6,32.0,36.6,31.8,24.6,76,66,55,30.25,30.05,10,1,10,0.00
2013-4-16,55.0,50.5,46.2,46.9,40.0,34.6,80,67,61,30.07,29.79,13,2,13,0.00
2013-4-17,54.6,48.9,41.7,40.9,34.4,29.0,71,58,47,30.26,30.00,10,1,10,0.00
2013-4-18,57.9,47.4,40.8,41.3,34.5,28.4,67,61,53,30.26,29.73,61,3,61,0.00
2013-4-19,67.1,58.0,48.9,56.6,48.5,38.3,77,71,62,29.74,29.31,61,5,61,0.00
2013-4-20,51.9,46.1,38.8,38.3,30.3,22.6,67,54,44,30.18,29.58,20,4,20,0.00
2013-4-21,45.8,39.8,33.0,23.5,20.9,17.2,54,47,38,30.60,30.18,12,1,12,0.00
2013-4-22,53.0,43.8,30.2,30.9,24.2,17.9,62,47,21,30.62,30.41,18,2,18,0.00
2013-4-23,54.1,47.6,39.2,36.2,30.2,22.4,62,51,42,30.42,30.01,16,3,16,0.00
2013-4-24,64.2,54.3,38.8,48.9,40.4,29.2,72,60,49,30.01,29.50,14,2,14,0.00
2013-4-25,59.5,49.6,43.5,48.5,33.2,28.5,68,54,42,30.20,29.53,19,3,19,0.00
2013-4-26,51.4,45.8,39.9,38.5,33.0,27.0,67,61,56,30.36,30.18,7,0,7,0.00
2013-4-27,55.0,47.6,37.2,38.0,32.9,27.6,70,57,44,30.36,30.20,8,0,8,0.00
2013-4-28,64.9,53.9,39.5,40.6,35.3,27.9,65,50,37,30.22,30.00,9,1,9,0.00
2013-4-29,62.6,55.7,49.1,43.7,40.3,36.0,64,56,47,30.07,30.01,12,2,12,0.00
2013-4-30,66.0,58.0,52.3,50.2,45.4,41.2,74,63,55,30.16,30.06,9,1,9,0.00
2013-5-1,72.1,62.0,49.1,50.5,45.3,40.6,74,56,39,30.33,30.15,8,0,8,0.00
2013-5-2,74.1,64.4,50.9,49.0,45.0,39.1,66,50,39,30.33,30.21,11,1,11,0.00
2013-5-3,67.2,62.1,54.3,43.8,39.6,33.8,54,44,37,30.39,30.22,10,2,10,0.00
2013-5-4,70.8,61.7,48.0,47.1,42.1,35.9,64,50,37,30.24,30.09,9,0,9,0.00
2013-5-5,72.1,63.2,50.1,47.8,42.8,38.0,65,49,33,30.12,30.00,9,0,9,0.00
2013-5-6,72.6,63.3,51.4,48.4,41.2,35.8,62,46,29,30.09,29.92,11,1,11,0.00
2013-5-7,75.5,65.4,51.0,52.9,43.8,34.5,56,46,36,30.02,29.92,9,1,9,0.00
2013-5-8,76.8,66.6,54.3,57.4,51.2,41.9,75,59,45,30.03,29.91,11,1,15,0.00
2013-5-9,71.4,66.1,61.3,59.7,55.1,51.4,81,68,55,29.91,29.74,13,1,13,0.00
2013-5-10,66.5,63.1,60.6,55.0,53.3,51.2,77,71,65,29.90,29.66,8,0,8,0.00
2013-5-11,67.1,61.7,55.2,60.6,54.0,45.2,85,76,66,29.66,29.50,17,1,17,0.06
2013-5-12,57.3,54.5,50.7,46.7,41.1,31.7,73,62,46,29.62,29.53,63,2,63,0.00
2013-5-14,53.9,50.9,44.6,33.4,32.4,31.1,59,49,44,29.93,29.89,7,0,7,0.00
2013-5-15,59.1,49.5,37.9,45.3,37.5,27.1,75,64,48,29.92,29.43,12,1,12,0.00
2013-5-16,70.3,60.6,51.6,49.8,43.6,38.4,78,55,39,29.82,29.48,14,2,14,0.00
2013-5-17,62.0,57.0,51.0,44.6,41.7,38.4,65,57,51,30.11,29.82,10,0,10,0.00
2013-5-18,66.2,58.2,47.3,46.9,41.0,37.0,69,54,37,30.20,30.11,8,0,8,0.00
2013-5-19,64.5,57.1,49.1,51.9,46.2,37.1,81,67,55,30.16,29.97,9,1,9,0.00
2013-5-20,65.3,59.9,56.4,59.4,54.6,50.6,85,82,79,29.97,29.86,8,0,8,0.02
2013-5-21,63.5,60.6,58.8,57.4,55.2,53.6,87,83,76,29.91,29.68,7,0,7,0.00
2013-5-22,70.1,63.2,58.1,65.3,59.2,53.9,88,87,84,29.74,29.58,9,0,9,0.00
2013-5-23,71.2,66.0,63.3,67.1,62.4,59.4,91,88,84,29.64,29.56,9,0,9,0.00
2013-5-24,63.3,51.7,48.0,59.4,46.7,43.0,87,83,81,29.96,29.63,8,0,8,0.00
2013-5-25,48.0,45.5,43.8,43.7,41.1,39.0,85,84,83,29.95,29.84,15,1,15,0.00
2013-5-26,49.2,45.8,43.5,44.9,41.5,38.9,86,85,84,29.96,29.77,17,1,17,0.02
2013-5-27,61.8,52.7,40.2,47.7,41.9,35.4,86,68,49,30.05,29.92,12,0,12,0.00
2013-5-28,66.0,57.3,45.5,49.0,44.4,37.5,76,63,49,30.10,29.96,9,0,9,0.00
2013-5-29,64.5,60.1,56.4,59.8,54.0,47.0,86,81,62,29.96,29.77,9,0,9,0.00
2013-5-30,78.6,68.1,57.5,66.1,61.0,53.0,89,79,64,29.95,29.83,7,0,7,0.00
2013-5-31,82.2,73.6,64.5,70.4,63.7,58.2,84,72,54,29.95,29.76,8,0,8,0.00
2013-6-1,82.7,75.4,68.1,69.2,64.6,59.2,79,70,59,29.83,29.66,8,0,8,0.00
2013-6-2,79.3,72.5,68.1,72.8,64.6,58.4,87,77,65,29.70,29.53,12,0,12,0.02
2013-6-3,68.1,65.7,58.6,58.4,52.2,43.1,74,62,53,29.76,29.62,11,1,11,0.00
2013-6-4,63.3,58.6,54.5,46.9,44.1,41.3,64,59,55,30.01,29.75,12,1,12,0.00
2013-6-5,64.0,59.4,51.9,47.5,44.9,40.8,69,59,51,30.11,30.00,8,0,8,0.00
2013-6-6,59.1,57.3,55.7,50.7,47.8,44.0,82,71,58,30.07,29.95,0,0,0,0.02
2013-6-7,56.4,55.4,54.1,51.9,50.7,49.2,86,84,82,29.96,29.77,9,0,9,0.00
2013-6-8,61.5,57.7,54.6,56.6,53.4,50.8,87,86,83,29.92,29.69,5,0,5,0.00
2013-6-9,71.4,64.3,57.9,60.0,55.7,52.5,86,75,59,30.09,29.91,10,1,10,0.00
2013-6-10,69.9,63.4,56.8,60.1,55.2,49.6,81,75,69,30.10,29.84,9,0,9,0.02
2013-6-11,61.8,59.0,56.8,55.9,54.4,52.6,87,85,81,29.84,29.49,8,0,8,0.02
2013-6-12,63.5,59.8,55.9,55.8,53.9,51.9,87,81,72,29.75,29.55,12,0,12,0.02
2013-6-13,64.9,62.0,56.6,57.7,55.2,51.5,83,78,75,29.72,29.57,6,0,6,0.00
2013-6-14,71.9,64.7,56.1,59.7,54.4,46.1,84,70,54,29.76,29.58,12,1,12,0.00
2013-6-15,71.4,65.3,57.3,52.0,47.8,43.0,64,54,45,29.85,29.76,9,1,9,0.00
2013-6-16,65.1,62.3,59.5,56.4,51.9,45.6,83,70,54,29.78,29.57,8,0,8,0.00
2013-6-17,69.6,63.3,57.0,62.4,55.8,50.0,87,77,69,29.85,29.63,10,0,10,0.00
2013-6-18,64.0,59.4,53.7,52.8,49.4,45.8,77,70,60,29.90,29.82,10,0,10,0.00
2013-6-19,65.8,60.5,52.8,48.2,44.7,40.1,64,56,48,30.07,29.90,8,0,8,0.00
2013-6-20,68.5,61.8,51.0,53.2,47.9,41.3,71,61,50,30.15,30.07,8,0,8,0.00
2013-6-21,74.1,67.0,56.8,57.6,53.1,47.1,73,62,50,30.14,30.08,7,0,7,0.00
2013-6-22,69.8,66.8,64.5,61.4,58.6,54.6,84,75,65,30.09,29.97,0,0,0,0.00
2013-6-23,74.8,70.3,64.7,70.7,65.9,60.1,88,86,84,29.97,29.82,4,0,4,0.00
2013-6-24,80.6,74.3,68.7,73.0,68.1,63.8,89,81,71,29.86,29.74,7,0,7,0.00
2013-6-25,78.4,71.2,68.1,72.3,66.3,63.3,88,85,79,29.79,29.63,9,0,9,0.00
2013-6-26,71.7,69.1,67.1,68.3,65.7,63.3,90,89,87,29.69,29.63,8,0,8,0.00
2013-6-27,75.9,71.3,66.5,70.4,66.8,62.5,90,86,80,29.68,29.61,7,0,7,0.00
2013-6-28,68.7,64.0,59.9,65.6,59.2,55.0,90,84,80,29.62,29.28,10,0,10,0.17
2013-6-29,69.0,65.5,60.0,64.6,60.8,55.4,88,85,79,29.57,29.39,8,0,8,0.33
2013-6-30,73.0,68.2,62.0,65.7,62.6,57.9,89,83,75,29.84,29.56,9,0,9,0.00
2013-7-1,69.9,67.2,63.6,63.4,60.3,57.7,82,79,73,30.01,29.83,6,0,6,0.10
2013-7-2,68.9,65.0,60.2,64.8,60.2,55.4,89,84,81,30.02,29.98,5,0,5,0.10
2013-7-3,75.0,70.5,66.7,72.0,67.4,63.6,92,90,88,30.05,29.97,2,0,2,0.30
2013-7-4,78.9,73.0,68.1,74.6,69.8,65.1,91,90,85,30.06,29.95,7,0,7,0.02
2013-7-5,81.1,74.7,68.7,74.8,70.4,65.3,91,87,79,30.02,29.91,8,0,8,0.00
2013-7-6,79.1,74.8,70.8,70.5,67.4,61.8,88,78,65,29.96,29.87,8,0,8,0.00
2013-7-7,76.8,72.9,70.5,70.1,65.8,60.5,88,79,69,29.91,29.83,8,0,8,0.27
2013-7-8,74.4,70.9,68.1,68.2,66.1,63.6,89,85,79,29.95,29.82,9,0,9,0.02
2013-7-9,79.1,73.5,66.9,70.1,66.4,61.9,85,79,71,29.97,29.84,5,0,5,0.00
2013-7-10,78.4,75.0,71.4,72.8,69.7,66.3,86,84,80,29.84,29.58,8,1,8,0.00
2013-7-11,75.5,72.2,67.6,69.5,64.2,58.1,88,76,64,29.93,29.61,8,0,8,0.73
2013-7-12,67.6,66.1,64.5,58.3,57.2,55.7,74,73,72,29.98,29.93,4,0,4,0.00
2013-7-17,87.8,84.7,78.9,73.9,72.0,69.8,75,66,61,30.02,29.84,9,0,9,0.00
2013-7-18,83.4,79.5,73.5,73.0,70.0,66.1,80,73,68,29.93,29.80,8,0,8,0.00
2013-7-19,89.4,81.0,74.8,76.4,70.3,66.0,82,71,56,29.81,29.51,15,1,15,0.00
2013-7-20,77.7,75.1,71.7,70.3,64.4,58.9,80,70,57,29.74,29.53,9,1,9,0.00
2013-7-21,71.7,67.9,63.1,59.3,53.7,51.1,67,61,55,29.94,29.74,8,0,8,0.00
2013-7-22,73.7,68.2,59.1,60.8,55.8,49.8,72,65,56,29.94,29.71,7,0,7,0.00
2013-7-23,73.9,71.0,69.4,67.7,64.2,60.4,84,79,71,29.72,29.43,8,0,8,0.00
2013-7-24,70.5,65.5,57.7,63.5,56.0,48.2,83,71,63,29.96,29.43,12,0,12,0.00
2013-7-25,66.7,61.4,53.4,51.1,49.0,44.9,74,64,56,30.07,29.95,6,0,6,0.02
2013-7-26,71.4,64.7,57.0,59.7,53.7,47.6,74,68,59,30.02,29.91,3,0,3,0.00
2013-7-27,75.5,68.7,58.2,63.0,57.4,49.6,76,68,59,29.94,29.83,9,0,9,0.02
2013-7-28,75.0,71.3,68.5,66.1,62.7,59.5,78,74,70,29.85,29.78,8,0,9,0.00
2013-7-29,74.8,70.2,65.1,63.1,60.1,55.2,80,71,63,29.98,29.84,7,0,8,0.00
2013-7-30,73.2,68.6,62.4,59.9,56.8,53.2,74,66,61,30.02,29.95,7,0,7,0.00
2013-7-31,76.1,70.0,61.3,64.4,58.3,53.3,78,67,52,30.02,29.89,8,0,8,0.00
2013-8-1,76.2,69.4,65.6,65.8,61.7,58.0,84,77,68,29.89,29.67,14,0,14,0.01
2013-8-2,75.7,70.1,65.1,64.7,60.4,56.8,85,72,57,29.71,29.66,8,0,8,0.00
2013-8-3,71.9,68.1,63.5,61.7,58.1,55.9,81,71,62,29.73,29.63,8,0,11,0.00
2013-8-4,69.6,65.6,62.4,59.0,55.6,52.5,76,70,62,29.85,29.70,11,1,11,0.00
2013-8-5,69.6,64.1,56.4,52.5,49.1,46.0,72,59,46,29.93,29.85,11,1,11,0.00
2013-8-6,71.7,65.2,56.8,57.2,52.3,47.1,73,64,56,30.00,29.92,8,0,8,0.00
2013-8-7,76.2,68.7,60.6,63.6,58.2,50.9,77,69,62,30.00,29.84,12,1,12,0.00
2013-8-8,78.6,73.0,68.3,70.2,65.2,60.6,82,77,72,29.87,29.80,9,0,9,0.00
2013-8-9,73.2,71.6,70.3,69.1,66.9,64.9,87,85,79,29.83,29.65,2,0,2,0.00
2013-8-10,71.4,67.8,62.2,65.9,56.6,51.2,86,68,55,29.93,29.69,16,1,16,0.00
2013-8-11,71.7,66.8,59.5,59.6,54.8,50.5,74,66,57,29.96,29.87,8,0,8,0.00
2013-8-12,72.5,68.5,62.9,59.6,56.5,52.2,71,66,63,29.90,29.77,7,0,7,0.00
2013-8-13,68.9,65.6,62.7,63.8,58.6,53.7,84,78,68,29.78,29.56,3,0,3,0.00
2013-8-14,65.1,62.5,59.9,59.4,53.8,50.4,83,73,69,29.85,29.57,12,1,12,0.00
2013-8-15,71.4,66.4,58.1,55.9,52.3,48.7,71,61,53,29.97,29.85,8,0,8,0.00
2013-8-16,71.7,66.3,59.5,59.6,55.6,49.8,75,68,62,30.11,29.96,61,0,61,0.00
2013-8-17,70.5,65.8,57.7,57.1,53.9,49.1,76,66,57,30.21,30.11,10,0,10,0.00
2013-8-18,73.2,66.4,57.9,63.0,56.5,49.6,78,71,61,30.17,29.96,9,0,9,0.00
2013-8-19,78.9,70.6,61.3,63.8,58.6,52.9,76,66,57,29.97,29.86,7,0,9,0.00
2013-8-20,78.2,72.7,65.4,65.2,60.5,55.0,71,66,61,29.97,29.88,8,0,8,0.00
2013-8-21,82.5,75.5,68.3,67.9,62.6,58.1,72,65,56,30.01,29.86,8,0,8,0.00
2013-8-22,79.8,72.6,68.3,68.0,63.8,59.5,82,74,66,29.88,29.71,8,0,8,0.00
2013-8-23,69.4,66.4,62.0,62.1,55.5,51.3,81,68,58,30.09,29.79,9,0,9,0.00
2013-8-24,70.1,64.3,55.5,56.4,52.7,47.0,75,66,58,30.24,30.09,8,0,8,0.00
2013-8-25,72.3,65.9,57.0,59.6,54.8,48.7,77,68,58,30.26,30.00,8,0,8,0.00
2013-8-26,71.2,68.0,65.1,66.4,62.6,58.4,86,83,76,30.02,29.76,7,0,7,0.00
2013-8-27,74.3,70.9,67.6,68.2,66.0,63.6,88,84,80,29.81,29.76,8,0,8,0.00
2013-8-28,77.9,73.1,67.1,70.1,66.2,62.4,86,79,70,29.86,29.76,8,0,8,0.00
2013-8-29,73.2,69.8,66.9,66.3,63.5,60.9,83,80,77,29.95,29.85,0,0,3,0.00
2013-8-30,77.1,71.3,63.6,69.0,64.1,58.0,84,78,71,29.90,29.65,8,0,8,0.00
2013-8-31,74.8,72.2,69.9,68.3,65.5,62.6,82,80,73,29.71,29.63,3,0,3,0.00
2013-9-1,77.0,72.9,68.1,67.6,64.4,62.6,84,75,65,29.78,29.69,8,0,8,0.00
2013-9-2,75.3,71.0,67.2,70.5,65.2,61.5,87,82,75,29.71,29.54,15,0,15,0.00
2013-9-3,71.4,67.3,63.8,62.8,60.1,57.4,85,78,68,29.70,29.58,9,0,9,0.00
2013-9-4,70.5,66.0,62.0,59.6,57.0,54.0,77,73,68,29.81,29.70,10,1,10,0.00
2013-9-5,64.2,60.4,53.6,56.3,46.5,40.4,77,61,48,30.07,29.80,12,0,12,0.00
2013-9-6,66.0,58.9,49.8,48.3,43.8,38.1,66,58,50,30.13,29.92,8,0,8,0.00
2013-9-7,70.5,64.3,59.7,56.8,51.0,45.3,70,62,56,29.94,29.71,8,0,8,0.00
2013-9-8,62.7,59.6,52.7,55.6,47.8,40.4,79,66,53,29.99,29.66,12,1,12,0.00
2013-9-9,64.2,57.1,48.5,50.8,45.5,38.6,70,65,61,30.07,29.91,8,0,8,0.00
2013-9-10,68.7,62.7,58.1,64.3,56.9,48.6,87,81,69,29.93,29.83,7,0,7,0.00
2013-9-11,84.7,74.7,66.5,74.3,68.0,62.5,91,80,66,29.87,29.75,8,0,8,0.00
2013-9-12,71.6,69.9,66.9,67.8,65.9,63.2,89,87,82,29.81,29.53,1,0,1,0.00
2013-9-13,66.9,60.9,55.7,63.2,55.2,49.2,88,82,77,29.78,29.52,9,1,9,0.00
2013-9-14,58.8,55.4,51.4,50.7,48.4,44.3,81,77,73,29.97,29.76,8,0,8,0.00
2013-9-15,63.1,57.2,49.8,54.8,49.8,43.1,81,76,72,30.00,29.89,8,0,8,0.00
2013-9-16,58.8,53.4,47.4,51.8,45.2,38.8,82,74,64,30.24,29.88,9,0,9,0.00
2013-9-17,57.2,51.4,44.2,45.1,41.5,36.4,75,69,61,30.36,30.20,7,0,7,0.00
2013-9-18,62.6,55.0,45.6,51.6,46.0,38.5,79,72,61,30.20,30.01,8,0,8,0.00
2013-9-19,66.7,58.8,49.8,55.9,50.2,42.8,80,74,64,30.04,29.92,6,0,6,0.00
2013-9-20,70.5,62.7,54.3,59.9,54.0,47.9,81,74,64,29.97,29.75,8,0,8,0.00
2013-9-21,70.1,65.2,60.4,59.6,56.0,52.7,79,72,60,29.76,29.46,15,1,15,0.00
2013-9-22,64.7,58.7,51.0,57.7,50.2,41.3,82,73,64,29.81,29.44,9,0,9,0.00
2013-9-23,52.5,50.2,47.4,41.4,40.0,37.7,70,68,65,29.96,29.81,10,1,10,0.00
2013-9-24,59.9,54.3,49.6,44.9,42.3,39.0,69,64,57,29.95,29.79,11,0,11,0.00
2013-9-25,61.7,55.4,49.8,50.3,45.6,41.1,74,70,65,29.93,29.83,8,0,8,0.00
2013-9-26,59.1,54.1,46.2,48.3,45.1,38.4,78,72,66,30.08,29.93,4,0,4,0.00
2013-9-27,61.8,58.1,54.5,51.0,49.2,46.3,76,72,66,30.19,30.07,15,0,15,0.00
2013-9-28,64.9,57.4,49.8,54.0,48.4,42.5,79,72,61,30.26,30.12,2,0,2,0.00
2013-9-29,66.3,58.0,49.2,55.4,49.0,41.9,78,72,62,30.13,29.93,7,0,7,0.00
2013-9-30,66.0,58.3,50.3,55.7,49.0,42.8,78,72,60,29.98,29.86,9,0,9,0.00
2013-10-1,66.7,59.3,52.3,55.9,50.9,44.6,79,74,68,29.89,29.75,15,0,15,0.00
2013-10-2,71.7,64.2,57.9,61.7,54.2,49.8,81,71,54,29.87,29.71,15,0,15,0.00
2013-10-3,65.1,60.7,55.5,51.2,47.3,43.8,67,61,53,30.00,29.86,8,0,8,0.00
2013-10-4,60.4,56.6,51.6,51.8,47.3,43.2,76,71,66,30.01,29.94,0,0,0,0.00
2013-10-5,61.5,57.8,55.5,46.4,43.8,41.7,67,60,50,30.05,29.97,8,0,8,0.00
2013-10-6,57.0,54.9,52.7,51.3,45.0,39.7,82,70,60,30.05,29.82,25,1,25,0.00
2013-10-7,69.6,60.8,56.1,62.4,54.9,48.5,85,81,76,29.82,29.47,16,2,16,0.00
2013-10-8,57.7,53.6,48.0,48.5,42.2,38.2,76,66,54,30.28,29.76,8,0,9,0.00
2013-10-9,58.2,50.5,42.6,47.5,40.7,34.2,76,69,58,30.34,30.21,8,0,8,0.00
2013-10-10,58.8,51.4,44.4,48.2,42.8,36.6,76,73,67,30.21,30.06,0,0,0,0.00
2013-10-11,50.3,48.7,46.9,42.7,41.1,39.4,75,75,75,30.07,30.05,0,0,0,0.00
2013-11-4,36.8,34.0,30.3,21.3,20.6,19.7,66,58,52,30.59,30.51,7,0,7,0.00
2013-11-5,44.6,38.2,30.7,32.0,26.8,20.6,68,63,58,30.52,30.26,8,1,8,0.00
2013-11-6,52.8,46.8,38.4,43.4,37.9,29.1,74,71,68,30.27,29.66,13,2,13,0.00
2013-11-7,51.9,47.2,38.4,46.9,38.6,26.5,83,72,60,29.77,29.54,14,1,14,0.00
2013-11-8,40.8,38.5,35.7,29.1,26.7,23.7,68,62,59,29.99,29.72,10,1,10,0.00
2013-11-9,41.3,38.0,32.0,30.1,25.9,21.3,67,61,57,30.07,29.77,11,0,11,0.00
2013-11-10,46.9,42.0,39.0,39.5,34.2,29.6,80,74,68,29.77,29.55,13,2,13,0.00
2013-11-11,42.0,39.5,35.4,33.0,29.1,24.4,71,66,62,29.98,29.70,13,3,13,0.00
2013-11-12,35.4,30.9,27.1,24.4,18.4,14.0,64,59,57,30.15,29.82,61,2,61,0.00
2013-11-13,34.8,29.5,24.0,23.1,16.2,11.3,62,57,51,30.22,29.85,12,2,12,0.00
2013-11-14,43.7,39.4,34.3,30.8,27.7,22.2,67,63,59,29.90,29.85,14,2,14,0.00
2013-11-15,47.6,40.2,33.8,32.9,28.2,24.2,71,63,52,30.04,29.89,8,0,8,0.00
2013-11-16,49.1,41.4,36.1,34.2,28.8,24.9,65,61,54,30.14,30.02,0,0,0,0.00
2013-11-17,53.7,45.9,35.9,49.3,38.9,25.8,85,77,65,30.09,29.47,14,2,14,0.00
2013-11-18,55.9,50.7,43.1,50.9,41.2,28.4,85,70,56,29.53,29.20,24,5,24,0.13
2013-11-19,42.9,35.3,31.2,29.0,20.7,17.1,61,55,52,30.28,29.52,13,2,13,0.00
2013-11-20,34.3,30.5,27.1,19.7,17.7,15.4,64,59,54,30.53,30.28,8,0,8,0.00
2013-11-21,38.4,31.7,23.9,26.4,20.6,14.4,69,63,58,30.51,30.20,8,0,8,0.00
2013-11-22,41.1,38.5,35.7,35.4,30.6,24.0,80,73,62,30.20,29.68,10,0,10,0.02
2013-11-23,40.4,33.7,25.3,33.4,23.0,13.8,76,65,58,29.87,29.66,13,2,13,0.00
2013-11-24,25.5,20.8,17.4,14.6,7.4,2.3,63,56,51,30.16,29.76,61,3,61,0.00
2013-11-25,29.8,22.0,14.1,17.4,8.1,0.6,60,55,51,30.26,29.98,11,2,11,0.00
2013-11-26,36.1,33.2,29.8,27.7,22.5,17.2,77,65,58,30.08,29.83,11,1,11,0.00
2013-11-27,37.4,34.6,0.0,32.3,28.7,-4.7,82,79,72,29.82,29.27,61,1,61,0.30
2013-11-28,30.3,24.4,20.4,22.3,13.0,9.4,72,62,56,30.32,29.44,13,2,13,0.00
2013-11-29,25.8,21.5,17.9,13.5,10.0,6.9,63,61,58,30.65,30.31,7,0,7,0.00
2013-11-30,28.5,22.1,14.1,15.4,10.8,3.5,68,62,57,30.68,30.15,13,2,13,0.00
2013-12-1,34.1,31.5,28.5,26.9,21.2,15.2,77,66,57,30.15,29.92,10,0,10,0.00
2013-12-2,35.7,34.3,33.2,30.2,28.6,27.2,82,80,78,29.92,29.78,0,0,0,0.02
2013-12-3,38.3,34.9,32.1,33.4,29.7,25.1,84,81,75,29.89,29.79,8,0,8,0.03
2013-12-4,36.5,33.5,30.0,28.7,26.1,22.6,75,74,72,30.04,29.89,2,0,2,0.00
2013-12-5,48.5,41.1,31.2,44.3,35.8,24.2,86,82,75,29.99,29.63,12,2,12,0.00
2013-12-6,48.0,40.0,36.1,43.0,31.8,26.2,83,73,65,30.05,29.76,10,1,10,0.04
2013-12-7,36.1,31.3,27.3,26.2,17.7,14.4,67,57,51,30.36,30.01,11,1,11,0.00
2013-12-8,29.4,27.6,25.5,17.0,14.3,11.4,63,57,54,30.47,30.32,7,0,7,0.00
2013-12-9,35.9,31.6,28.0,28.9,22.8,16.8,78,70,60,30.33,29.66,17,4,17,0.02
2013-12-10,35.7,30.7,23.5,27.2,18.1,10.2,71,59,51,29.82,29.67,13,2,13,0.02
2013-12-11,29.1,24.5,18.5,14.1,10.9,6.4,59,56,51,30.07,29.82,13,1,13,0.00
2013-12-12,21.9,18.1,12.5,8.4,3.9,-1.0,59,54,48,30.20,29.79,12,1,12,0.00
2013-12-13,21.7,17.2,8.4,10.6,3.0,-7.4,62,53,47,30.36,29.75,15,1,15,0.00
2013-12-14,12.5,8.6,5.0,2.4,-4.8,-9.2,64,54,49,30.52,30.00,8,0,8,0.00
2013-12-15,21.7,18.3,12.5,13.1,9.6,2.5,71,68,64,30.00,29.44,0,0,0,0.00
2013-12-16,14.7,10.5,1.5,4.1,-1.3,-10.3,67,59,53,30.14,29.57,9,1,9,0.00
2013-12-17,17.4,9.3,-0.5,8.9,-0.6,-12.2,69,63,56,30.14,29.88,8,0,8,0.00
2013-12-18,25.3,19.3,12.3,18.4,11.1,3.0,75,70,66,29.89,29.80,5,0,5,0.00
2013-12-19,33.4,28.9,23.5,25.9,21.8,16.1,76,75,73,29.95,29.76,7,0,7,0.00
2013-12-20,33.0,28.5,24.0,26.1,21.6,16.6,78,75,73,29.95,29.78,8,0,8,0.00
2013-12-21,28.0,25.5,24.0,22.3,19.1,17.5,79,77,75,29.91,29.69,12,0,12,0.02
2013-12-22,26.0,24.8,22.6,19.9,18.6,16.0,79,77,75,29.90,29.63,9,0,9,0.00
2013-12-23,26.2,25.2,24.0,20.2,19.0,17.5,78,77,76,30.08,29.87,0,0,0,0.00
2013-12-24,25.7,18.4,11.1,19.7,10.0,0.5,78,69,62,30.26,30.06,7,0,7,0.00
2013-12-25,14.7,10.4,3.9,6.7,1.2,-5.9,70,66,61,30.45,30.22,4,0,4,0.00
2013-12-26,25.5,21.2,14.7,19.5,14.4,6.7,78,75,70,30.22,29.97,0,0,0,0.00
2013-12-27,30.3,27.3,24.4,23.7,20.9,18.2,79,77,74,30.09,29.98,11,0,11,0.00
2013-12-28,35.9,31.6,26.0,30.9,26.0,18.8,83,80,74,29.99,29.83,8,0,8,0.20
2013-12-29,35.7,32.2,26.4,30.7,26.8,20.1,83,80,77,29.85,29.47,8,0,8,0.06
2013-12-30,28.0,20.3,9.6,22.3,10.3,-2.6,79,65,56,30.12,29.46,10,0,10,0.00
2013-12-31,17.2,13.0,9.3,8.2,2.9,-2.4,70,64,58,30.11,29.87,8,0,8,0.00
2014-1-1,16.8,10.7,2.1,7.0,-0.3,-10.8,67,61,54,30.41,30.00,10,0,10,0.00
2014-1-2,2.1,-3.2,-5.0,-10.8,-15.9,-17.5,58,54,51,30.40,29.97,11,0,11,0.00